Location: ?????????
(41.2286°N, 23.0068°E)
Time: 08:48:14
(UTC+00:00)

FengYun 1-2 T - Pass Details

Date: 08 November 2025
Orbit: 845 x 879 km, 98.8° (Epoch: 04 December)

Event Time Altitude Azimuth Distance (km) Brightness Sun altitude
Rises 03:09:12 0° 14° (NNE) 3,438 7.5 -22.5°
Reaches altitude 10° 03:11:35 10° 15° (NNE) 2,502 6.8 -22.1°
Maximum altitude 03:17:09 83° 104° (ESE) 876 4.3 -21.0°
Drops below altitude 10° 03:22:45 10° 192° (SSW) 2,508 6.6 -20.0°
Sets 03:25:07 0° 194° (SSW) 3,446 7.3 -19.5°
